Time,TemperatureF,DewpointF,PressureIn,WindDirection,WindDirectionDegrees,WindSpeedMPH,WindSpeedGustMPH,Humidity,HourlyPrecipIn,Conditions,Clouds,dailyrainin,SoftwareType,DateUTC
2013-10-06 00:00:00,60.2,58.2,29.94,NE,47,0.0,0.0,93,0.00,,,0.00,WeatherCatV1.11B39,2013-10-06 04:00:00,
2013-10-06 00:01:00,60.2,58.2,29.94,NE,47,0.0,0.0,93,0.00,,,0.00,WeatherCatV1.11B39,2013-10-06 04:01:00,
2013-10-06 00:06:00,60.2,58.5,29.93,NE,47,0.0,0.0,94,0.00,,,0.00,WeatherCatV1.11B39,2013-10-06 04:06:00,
2013-10-06 00:11:00,60.2,58.5,29.93,NE,47,0.0,0.0,94,0.00,,,0.00,WeatherCatV1.11B39,2013-10-06 04:11:00,
2013-10-06 00:16:00,60.2,58.5,29.93,NE,47,0.0,0.0,94,0.00,,,0.00,WeatherCatV1.11B39,2013-10-06 04:16:00,
2013-10-06 00:21:00,60.2,58.5,29.93,NE,47,0.0,0.0,94,0.00,,,0.00,WeatherCatV1.11B39,2013-10-06 04:21:00,
2013-10-06 00:26:00,60.2,58.5,29.93,NE,47,0.0,0.0,94,0.00,,,0.00,WeatherCatV1.11B39,2013-10-06 04:26:00,
2013-10-06 00:31:00,60.2,58.5,29.94,NE,47,0.0,0.0,94,0.00,,,0.00,WeatherCatV1.11B39,2013-10-06 04:31:00,
2013-10-06 00:36:00,60.0,58.3,29.93,NE,47,0.0,0.0,94,0.00,,,0.00,WeatherCatV1.11B39,2013-10-06 04:36:00,
2013-10-06 00:41:00,60.0,58.6,29.94,NE,47,0.0,0.0,95,0.00,,,0.00,WeatherCatV1.11B39,2013-10-06 04:41:00,
2013-10-06 00:46:00,60.0,58.6,29.94,NE,47,0.0,0.0,95,0.00,,,0.00,WeatherCatV1.11B39,2013-10-06 04:46:00,
2013-10-06 00:51:00,60.1,58.7,29.94,NE,47,0.0,0.0,95,0.00,,,0.00,WeatherCatV1.11B39,2013-10-06 04:51:00,
2013-10-06 00:56:00,60.1,58.7,29.95,NE,47,0.0,0.0,95,0.00,,,0.00,WeatherCatV1.11B39,2013-10-06 04:56:00,
2013-10-06 01:01:00,60.0,58.6,29.95,NE,47,0.0,0.0,95,0.00,,,0.01,WeatherCatV1.11B39,2013-10-06 05:01:00,
2013-10-06 01:06:00,60.0,58.6,29.95,NE,47,0.0,0.0,95,0.00,,,0.01,WeatherCatV1.11B39,2013-10-06 05:06:00,
2013-10-06 01:11:00,59.9,58.5,29.95,NE,47,0.0,0.0,95,0.00,,,0.01,WeatherCatV1.11B39,2013-10-06 05:11:00,
2013-10-06 01:16:00,59.9,58.5,29.95,NE,47,0.0,0.0,95,0.00,,,0.01,WeatherCatV1.11B39,2013-10-06 05:16:00,
2013-10-06 01:21:00,59.9,58.5,29.95,NE,47,0.0,0.0,95,0.00,,,0.01,WeatherCatV1.11B39,2013-10-06 05:21:00,
2013-10-06 01:26:00,59.9,58.8,29.95,NE,47,0.0,0.0,96,0.00,,,0.01,WeatherCatV1.11B39,2013-10-06 05:26:00,
2013-10-06 01:31:00,59.9,58.5,29.94,NE,47,0.0,0.0,95,0.00,,,0.01,WeatherCatV1.11B39,2013-10-06 05:31:00,
2013-10-06 01:36:00,59.9,58.5,29.95,NE,47,0.0,0.0,95,0.00,,,0.01,WeatherCatV1.11B39,2013-10-06 05:36:00,
2013-10-06 01:41:00,59.9,58.8,29.94,NE,47,0.0,0.0,96,0.00,,,0.01,WeatherCatV1.11B39,2013-10-06 05:41:00,
2013-10-06 01:46:00,59.9,58.8,29.94,NE,47,0.0,0.0,96,0.00,,,0.01,WeatherCatV1.11B39,2013-10-06 05:46:00,
2013-10-06 01:51:00,59.9,58.8,29.94,NE,47,0.0,0.0,96,0.00,,,0.02,WeatherCatV1.11B39,2013-10-06 05:51:00,
2013-10-06 01:56:00,59.9,58.8,29.94,NE,47,0.0,0.0,96,0.00,,,0.02,WeatherCatV1.11B39,2013-10-06 05:56:00,
2013-10-06 02:01:00,59.9,58.8,29.94,NE,47,0.0,0.0,96,0.00,,,0.02,WeatherCatV1.11B39,2013-10-06 06:01:00,
2013-10-06 02:06:00,59.7,58.6,29.94,NE,47,0.0,0.0,96,0.00,,,0.02,WeatherCatV1.11B39,2013-10-06 06:06:00,
2013-10-06 02:11:00,59.7,58.6,29.94,NE,47,0.0,0.0,96,0.00,,,0.02,WeatherCatV1.11B39,2013-10-06 06:11:00,
2013-10-06 02:16:00,59.7,58.6,29.94,NE,47,0.0,0.0,96,0.00,,,0.02,WeatherCatV1.11B39,2013-10-06 06:16:00,
2013-10-06 02:21:00,59.6,58.5,29.94,NE,47,0.0,0.0,96,0.00,,,0.02,WeatherCatV1.11B39,2013-10-06 06:21:00,
2013-10-06 02:26:00,59.6,58.5,29.94,NE,47,0.0,0.0,96,0.00,,,0.02,WeatherCatV1.11B39,2013-10-06 06:26:00,
2013-10-06 02:31:00,59.6,58.5,29.93,NE,47,0.0,0.0,96,0.00,,,0.02,WeatherCatV1.11B39,2013-10-06 06:31:00,
2013-10-06 02:36:00,59.6,58.7,29.93,NE,47,0.0,0.0,97,0.00,,,0.02,WeatherCatV1.11B39,2013-10-06 06:36:00,
2013-10-06 02:41:00,59.6,58.7,29.93,NE,47,0.0,0.0,97,0.00,,,0.02,WeatherCatV1.11B39,2013-10-06 06:41:00,
2013-10-06 02:46:00,59.6,58.7,29.93,NE,47,0.0,0.0,97,0.00,,,0.02,WeatherCatV1.11B39,2013-10-06 06:46:00,
2013-10-06 02:51:00,59.6,58.7,29.93,NE,47,0.0,0.0,97,0.00,,,0.02,WeatherCatV1.11B39,2013-10-06 06:51:00,
2013-10-06 02:56:00,59.6,58.7,29.93,NE,47,0.0,0.0,97,0.00,,,0.02,WeatherCatV1.11B39,2013-10-06 06:56:00,
2013-10-06 03:01:00,59.6,58.7,29.93,NE,49,0.0,0.0,97,0.00,,,0.02,WeatherCatV1.11B39,2013-10-06 07:01:00,
2013-10-06 03:06:00,59.6,58.7,29.92,NE,49,0.0,0.0,97,0.00,,,0.02,WeatherCatV1.11B39,2013-10-06 07:06:00,
2013-10-06 03:11:00,59.4,58.5,29.93,NE,49,0.0,0.0,97,0.00,,,0.02,WeatherCatV1.11B39,2013-10-06 07:11:00,
2013-10-06 03:16:00,59.4,58.5,29.93,NE,49,0.0,0.0,97,0.00,,,0.02,WeatherCatV1.11B39,2013-10-06 07:16:00,
2013-10-06 03:21:00,59.4,58.5,29.93,NE,49,0.0,0.0,97,0.00,,,0.02,WeatherCatV1.11B39,2013-10-06 07:21:00,
2013-10-06 03:26:00,59.5,58.6,29.92,NE,49,0.0,0.0,97,0.00,,,0.02,WeatherCatV1.11B39,2013-10-06 07:26:00,
2013-10-06 03:31:00,59.3,58.4,29.93,NE,49,0.0,0.0,97,0.00,,,0.02,WeatherCatV1.11B39,2013-10-06 07:31:00,
2013-10-06 03:36:00,59.1,58.5,29.93,NE,49,0.0,0.0,98,0.00,,,0.02,WeatherCatV1.11B39,2013-10-06 07:36:00,
2013-10-06 03:41:00,59.1,58.2,29.93,NE,49,0.0,0.0,97,0.00,,,0.02,WeatherCatV1.11B39,2013-10-06 07:41:00,
2013-10-06 03:46:00,59.0,58.1,29.93,NE,49,0.0,0.0,97,0.00,,,0.02,WeatherCatV1.11B39,2013-10-06 07:46:00,
2013-10-06 03:51:00,59.0,58.1,29.93,NE,49,2.0,2.0,97,0.00,,,0.02,WeatherCatV1.11B39,2013-10-06 07:51:00,
2013-10-06 03:56:00,58.8,57.9,29.93,NE,49,0.0,0.0,97,0.00,,,0.02,WeatherCatV1.11B39,2013-10-06 07:56:00,
2013-10-06 04:01:00,58.7,58.1,29.93,NE,49,0.0,0.0,98,0.00,,,0.02,WeatherCatV1.11B39,2013-10-06 08:01:00,
2013-10-06 04:06:00,58.7,58.1,29.94,NE,49,0.0,0.0,98,0.00,,,0.02,WeatherCatV1.11B39,2013-10-06 08:06:00,
2013-10-06 04:11:00,58.7,58.1,29.93,NE,49,0.0,0.0,98,0.00,,,0.02,WeatherCatV1.11B39,2013-10-06 08:11:00,
2013-10-06 04:16:00,58.7,58.1,29.94,NE,49,0.0,0.0,98,0.00,,,0.02,WeatherCatV1.11B39,2013-10-06 08:16:00,
2013-10-06 04:21:00,58.7,58.1,29.94,NE,49,0.0,0.0,98,0.00,,,0.02,WeatherCatV1.11B39,2013-10-06 08:21:00,
2013-10-06 04:26:00,58.7,58.1,29.93,NE,49,0.0,0.0,98,0.00,,,0.02,WeatherCatV1.11B39,2013-10-06 08:26:00,
2013-10-06 04:31:00,58.7,58.4,29.94,NE,49,0.0,0.0,99,0.00,,,0.02,WeatherCatV1.11B39,2013-10-06 08:31:00,
2013-10-06 04:36:00,58.7,58.1,29.94,NE,49,0.0,0.0,98,0.00,,,0.02,WeatherCatV1.11B39,2013-10-06 08:36:00,
2013-10-06 04:41:00,58.7,58.4,29.94,NE,49,0.0,0.0,99,0.00,,,0.02,WeatherCatV1.11B39,2013-10-06 08:41:00,
2013-10-06 04:46:00,58.7,58.4,29.94,NE,49,0.0,0.0,99,0.00,,,0.02,WeatherCatV1.11B39,2013-10-06 08:46:00,
2013-10-06 04:51:00,58.7,58.4,29.94,NE,49,0.0,0.0,99,0.00,,,0.02,WeatherCatV1.11B39,2013-10-06 08:51:00,
2013-10-06 04:56:00,58.5,58.2,29.94,NE,49,0.0,0.0,99,0.00,,,0.02,WeatherCatV1.11B39,2013-10-06 08:56:00,
2013-10-06 05:01:00,58.5,57.9,29.95,NE,49,0.0,0.0,98,0.00,,,0.02,WeatherCatV1.11B39,2013-10-06 09:01:00,
2013-10-06 05:06:00,58.5,58.2,29.95,NE,49,0.0,0.0,99,0.00,,,0.02,WeatherCatV1.11B39,2013-10-06 09:06:00,
2013-10-06 05:09:00,58.5,57.9,29.95,NE,49,0.0,0.0,98,0.00,,,0.02,WeatherCatV1.11B39,2013-10-06 09:09:00,
2013-10-06 05:14:00,58.4,57.8,29.95,NE,53,0.0,3.0,98,0.00,,,0.02,WeatherCatV1.11B39,2013-10-06 09:14:00,
2013-10-06 05:19:00,58.4,58.1,29.96,NE,53,0.0,0.0,99,0.00,,,0.02,WeatherCatV1.11B39,2013-10-06 09:19:00,
2013-10-06 05:24:00,58.2,57.9,29.96,NE,54,0.0,0.0,99,0.00,,,0.03,WeatherCatV1.11B39,2013-10-06 09:24:00,
2013-10-06 05:29:00,58.2,57.9,29.96,NE,53,0.0,0.0,99,0.00,,,0.03,WeatherCatV1.11B39,2013-10-06 09:29:00,
2013-10-06 05:34:00,58.2,57.6,29.96,NE,53,0.0,0.0,98,0.00,,,0.03,WeatherCatV1.11B39,2013-10-06 09:34:00,
2013-10-06 05:39:00,58.2,57.6,29.96,NE,53,0.0,0.0,98,0.00,,,0.03,WeatherCatV1.11B39,2013-10-06 09:39:00,
2013-10-06 05:44:00,58.2,57.9,29.97,NE,53,0.0,0.0,99,0.00,,,0.04,WeatherCatV1.11B39,2013-10-06 09:44:00,
2013-10-06 05:49:00,58.2,57.6,29.97,NE,54,0.0,0.0,98,0.00,,,0.04,WeatherCatV1.11B39,2013-10-06 09:49:00,
2013-10-06 05:54:00,58.1,57.5,29.97,NE,54,0.0,0.0,98,0.00,,,0.04,WeatherCatV1.11B39,2013-10-06 09:54:00,
2013-10-06 05:59:00,58.1,57.8,29.98,NE,54,0.0,0.0,99,0.00,,,0.04,WeatherCatV1.11B39,2013-10-06 09:59:00,
2013-10-06 06:04:00,57.9,57.6,29.98,NE,54,0.0,0.0,99,0.00,,,0.04,WeatherCatV1.11B39,2013-10-06 10:04:00,
2013-10-06 06:09:00,57.8,57.2,29.98,NE,55,2.0,4.0,98,0.00,,,0.04,WeatherCatV1.11B39,2013-10-06 10:09:00,
2013-10-06 06:14:00,57.5,56.9,29.98,NE,55,0.0,0.0,98,0.00,,,0.04,WeatherCatV1.11B39,2013-10-06 10:14:00,
2013-10-06 06:19:00,57.3,56.7,29.98,NE,55,1.0,3.0,98,0.00,,,0.04,WeatherCatV1.11B39,2013-10-06 10:19:00,
2013-10-06 06:24:00,57.2,56.6,29.98,NE,56,0.0,0.0,98,0.00,,,0.05,WeatherCatV1.11B39,2013-10-06 10:24:00,
2013-10-06 06:29:00,57.0,56.7,29.98,NE,56,0.0,0.0,99,0.00,,,0.06,WeatherCatV1.11B39,2013-10-06 10:29:00,
2013-10-06 06:34:00,57.0,56.7,29.98,NE,56,0.0,0.0,99,0.00,,,0.06,WeatherCatV1.11B39,2013-10-06 10:34:00,
2013-10-06 06:39:00,57.0,56.7,29.99,NE,56,0.0,0.0,99,0.00,,,0.06,WeatherCatV1.11B39,2013-10-06 10:39:00,
2013-10-06 06:44:00,56.7,56.4,29.99,NE,56,0.0,0.0,99,0.00,,,0.06,WeatherCatV1.11B39,2013-10-06 10:44:00,
2013-10-06 06:49:00,56.6,56.0,29.99,NE,56,0.0,0.0,98,0.00,,,0.06,WeatherCatV1.11B39,2013-10-06 10:49:00,
2013-10-06 06:54:00,56.4,55.8,29.99,NE,56,0.0,0.0,98,0.00,,,0.06,WeatherCatV1.11B39,2013-10-06 10:54:00,
2013-10-06 06:59:00,56.4,55.8,29.99,NE,56,0.0,4.0,98,0.00,,,0.06,WeatherCatV1.11B39,2013-10-06 10:59:00,
2013-10-06 07:04:00,56.3,56.0,29.98,ENE,62,0.0,0.0,99,0.00,,,0.06,WeatherCatV1.11B39,2013-10-06 11:04:00,
2013-10-06 07:09:00,56.1,55.5,29.99,ENE,62,0.0,2.0,98,0.00,,,0.06,WeatherCatV1.11B39,2013-10-06 11:09:00,
2013-10-06 07:14:00,56.1,55.5,29.98,ENE,62,0.0,0.0,98,0.01,,,0.07,WeatherCatV1.11B39,2013-10-06 11:14:00,
2013-10-06 07:19:00,56.2,55.9,29.99,ENE,62,0.0,0.0,99,0.00,,,0.07,WeatherCatV1.11B39,2013-10-06 11:19:00,
2013-10-06 07:24:00,56.2,55.9,29.99,ENE,62,0.0,0.0,99,0.05,,,0.08,WeatherCatV1.11B39,2013-10-06 11:24:00,
2013-10-06 07:29:00,56.1,55.8,29.99,ENE,62,0.0,0.0,99,0.00,,,0.08,WeatherCatV1.11B39,2013-10-06 11:29:00,
2013-10-06 07:34:00,56.3,55.7,29.99,ENE,63,0.0,0.0,98,0.00,,,0.08,WeatherCatV1.11B39,2013-10-06 11:34:00,
2013-10-06 07:39:00,56.1,55.8,29.99,ENE,63,0.0,0.0,99,0.00,,,0.08,WeatherCatV1.11B39,2013-10-06 11:39:00,
2013-10-06 07:44:00,56.0,55.4,29.99,ENE,67,0.0,5.0,98,0.00,,,0.08,WeatherCatV1.11B39,2013-10-06 11:44:00,
2013-10-06 07:49:00,55.8,55.2,30.00,ENE,67,2.0,4.0,98,0.00,,,0.08,WeatherCatV1.11B39,2013-10-06 11:49:00,
2013-10-06 07:54:00,55.8,55.2,30.00,ENE,68,0.0,5.0,98,0.00,,,0.08,WeatherCatV1.11B39,2013-10-06 11:54:00,
2013-10-06 07:59:00,55.7,55.1,30.00,ENE,67,2.0,5.0,98,0.00,,,0.08,WeatherCatV1.11B39,2013-10-06 11:59:00,
2013-10-06 08:04:00,55.5,55.2,30.00,ENE,65,1.0,5.0,99,0.00,,,0.09,WeatherCatV1.11B39,2013-10-06 12:04:00,
2013-10-06 08:09:00,55.6,55.0,30.01,ENE,67,2.0,5.0,98,0.00,,,0.10,WeatherCatV1.11B39,2013-10-06 12:09:00,
2013-10-06 08:14:00,55.4,54.8,30.01,ENE,68,3.0,5.0,98,0.00,,,0.10,WeatherCatV1.11B39,2013-10-06 12:14:00,
2013-10-06 08:19:00,55.2,54.6,30.01,ENE,63,2.0,6.0,98,0.00,,,0.10,WeatherCatV1.11B39,2013-10-06 12:19:00,
2013-10-06 08:24:00,55.1,54.5,30.01,ENE,65,2.0,3.0,98,0.00,,,0.10,WeatherCatV1.11B39,2013-10-06 12:24:00,
2013-10-06 08:29:00,55.1,54.5,30.01,ENE,66,0.0,0.0,98,0.00,,,0.10,WeatherCatV1.11B39,2013-10-06 12:29:00,
2013-10-06 08:34:00,54.8,54.2,30.02,ENE,69,2.0,7.0,98,0.00,,,0.10,WeatherCatV1.11B39,2013-10-06 12:34:00,
2013-10-06 08:39:00,54.5,53.7,30.02,ENE,63,4.0,5.0,97,0.00,,,0.10,WeatherCatV1.11B39,2013-10-06 12:39:00,
2013-10-06 08:44:00,54.2,53.4,30.02,ENE,68,2.0,5.0,97,0.00,,,0.10,WeatherCatV1.11B39,2013-10-06 12:44:00,
2013-10-06 08:49:00,54.2,53.4,30.02,ENE,65,3.0,4.0,97,0.00,,,0.10,WeatherCatV1.11B39,2013-10-06 12:49:00,
2013-10-06 08:54:00,54.1,53.3,30.02,ENE,65,3.0,3.0,97,0.00,,,0.10,WeatherCatV1.11B39,2013-10-06 12:54:00,
2013-10-06 08:59:00,53.9,53.3,30.03,ENE,67,3.0,4.0,98,0.00,,,0.10,WeatherCatV1.11B39,2013-10-06 12:59:00,
2013-10-06 09:04:00,53.8,53.0,30.03,ENE,69,0.0,5.0,97,0.00,,,0.10,WeatherCatV1.11B39,2013-10-06 13:04:00,
2013-10-06 09:09:00,53.8,53.2,30.03,ENE,69,2.0,3.0,98,0.00,,,0.10,WeatherCatV1.11B39,2013-10-06 13:09:00,
2013-10-06 09:14:00,53.8,53.0,30.03,ENE,68,3.0,4.0,97,0.00,,,0.10,WeatherCatV1.11B39,2013-10-06 13:14:00,
2013-10-06 09:19:00,53.6,52.8,30.03,ENE,68,0.0,0.0,97,0.00,,,0.10,WeatherCatV1.11B39,2013-10-06 13:19:00,
2013-10-06 09:24:00,53.6,53.0,30.03,ENE,68,0.0,3.0,98,0.00,,,0.10,WeatherCatV1.11B39,2013-10-06 13:24:00,
2013-10-06 09:29:00,53.6,52.8,30.03,ENE,68,0.0,0.0,97,0.00,,,0.10,WeatherCatV1.11B39,2013-10-06 13:29:00,
2013-10-06 09:34:00,53.6,52.8,30.03,ENE,70,2.0,4.0,97,0.00,,,0.10,WeatherCatV1.11B39,2013-10-06 13:34:00,
2013-10-06 09:39:00,53.6,53.0,30.03,ENE,70,0.0,3.0,98,0.00,,,0.10,WeatherCatV1.11B39,2013-10-06 13:39:00,
2013-10-06 09:44:00,53.5,52.7,30.03,ENE,65,1.0,5.0,97,0.00,,,0.10,WeatherCatV1.11B39,2013-10-06 13:44:00,
2013-10-06 09:49:00,53.5,52.7,30.04,ENE,66,0.0,3.0,97,0.00,,,0.10,WeatherCatV1.11B39,2013-10-06 13:49:00,
2013-10-06 09:54:00,53.5,52.7,30.04,ENE,66,1.0,3.0,97,0.00,,,0.10,WeatherCatV1.11B39,2013-10-06 13:54:00,
2013-10-06 09:59:00,53.5,52.9,30.04,ENE,67,1.0,1.0,98,0.00,,,0.10,WeatherCatV1.11B39,2013-10-06 13:59:00,
2013-10-06 10:04:00,53.5,52.7,30.04,ENE,68,0.0,2.0,97,0.00,,,0.11,WeatherCatV1.11B39,2013-10-06 14:04:00,
2013-10-06 10:09:00,53.2,52.4,30.04,ENE,71,3.0,5.0,97,0.00,,,0.11,WeatherCatV1.11B39,2013-10-06 14:09:00,
2013-10-06 10:14:00,52.9,52.3,30.04,ENE,59,2.0,4.0,98,0.00,,,0.11,WeatherCatV1.11B39,2013-10-06 14:14:00,
2013-10-06 10:19:00,53.1,52.5,30.04,ENE,59,0.0,4.0,98,0.00,,,0.11,WeatherCatV1.11B39,2013-10-06 14:19:00,
2013-10-06 10:24:00,53.0,52.2,30.04,ENE,61,2.0,6.0,97,0.00,,,0.11,WeatherCatV1.11B39,2013-10-06 14:24:00,
2013-10-06 10:29:00,53.1,52.3,30.04,ENE,61,0.0,0.0,97,0.00,,,0.11,WeatherCatV1.11B39,2013-10-06 14:29:00,
2013-10-06 10:34:00,53.0,52.4,30.04,ENE,61,0.0,0.0,98,0.00,,,0.11,WeatherCatV1.11B39,2013-10-06 14:34:00,
2013-10-06 10:39:00,52.8,52.0,30.04,ENE,62,0.0,3.0,97,0.00,,,0.11,WeatherCatV1.11B39,2013-10-06 14:39:00,
2013-10-06 10:44:00,52.6,51.8,30.04,ENE,63,1.0,4.0,97,0.00,,,0.11,WeatherCatV1.11B39,2013-10-06 14:44:00,
2013-10-06 10:49:00,52.5,51.7,30.04,ENE,69,3.0,6.0,97,0.00,,,0.11,WeatherCatV1.11B39,2013-10-06 14:49:00,
2013-10-06 10:54:00,52.5,51.7,30.04,ENE,70,0.0,3.0,97,0.00,,,0.11,WeatherCatV1.11B39,2013-10-06 14:54:00,
2013-10-06 10:59:00,52.6,52.0,30.04,ENE,69,0.0,0.0,98,0.00,,,0.11,WeatherCatV1.11B39,2013-10-06 14:59:00,
2013-10-06 11:04:00,52.5,51.7,30.04,ENE,69,0.0,0.0,97,0.00,,,0.11,WeatherCatV1.11B39,2013-10-06 15:04:00,
2013-10-06 11:09:00,52.3,51.5,30.03,ENE,67,0.0,3.0,97,0.00,,,0.11,WeatherCatV1.11B39,2013-10-06 15:09:00,
2013-10-06 11:14:00,52.0,51.2,30.03,ENE,68,1.0,4.0,97,0.00,,,0.11,WeatherCatV1.11B39,2013-10-06 15:14:00,
2013-10-06 11:19:00,52.0,51.2,30.03,ENE,69,0.0,0.0,97,0.00,,,0.11,WeatherCatV1.11B39,2013-10-06 15:19:00,
2013-10-06 11:24:00,52.0,51.5,30.04,ENE,69,0.0,0.0,98,0.00,,,0.11,WeatherCatV1.11B39,2013-10-06 15:24:00,
2013-10-06 11:29:00,51.9,51.1,30.03,ENE,68,0.0,0.0,97,0.00,,,0.11,WeatherCatV1.11B39,2013-10-06 15:29:00,
2013-10-06 11:34:00,52.1,51.3,30.03,ENE,71,1.0,3.0,97,0.00,,,0.11,WeatherCatV1.11B39,2013-10-06 15:34:00,
2013-10-06 11:39:00,51.9,51.1,30.03,ENE,67,3.0,4.0,97,0.00,,,0.11,WeatherCatV1.11B39,2013-10-06 15:39:00,
2013-10-06 11:44:00,51.9,51.4,30.03,ENE,65,0.0,0.0,98,0.00,,,0.11,WeatherCatV1.11B39,2013-10-06 15:44:00,
2013-10-06 11:49:00,51.9,51.4,30.03,ENE,65,0.0,0.0,98,0.00,,,0.11,WeatherCatV1.11B39,2013-10-06 15:49:00,
2013-10-06 11:54:00,51.9,51.4,30.03,ENE,65,0.0,0.0,98,0.00,,,0.11,WeatherCatV1.11B39,2013-10-06 15:54:00,
2013-10-06 11:59:00,52.0,51.5,30.03,ENE,65,0.0,0.0,98,0.00,,,0.11,WeatherCatV1.11B39,2013-10-06 15:59:00,
2013-10-06 12:04:00,52.0,51.5,30.03,ENE,65,0.0,0.0,98,0.00,,,0.11,WeatherCatV1.11B39,2013-10-06 16:04:00,
2013-10-06 12:09:00,52.2,51.7,30.03,ENE,66,0.0,0.0,98,0.00,,,0.11,WeatherCatV1.11B39,2013-10-06 16:09:00,
2013-10-06 12:14:00,52.2,51.7,30.04,ENE,66,0.0,0.0,98,0.00,,,0.11,WeatherCatV1.11B39,2013-10-06 16:14:00,
2013-10-06 12:19:00,52.2,51.7,30.03,ENE,66,0.0,0.0,98,0.00,,,0.11,WeatherCatV1.11B39,2013-10-06 16:19:00,
2013-10-06 12:24:00,52.0,51.2,30.03,ENE,66,0.0,0.0,97,0.00,,,0.11,WeatherCatV1.11B39,2013-10-06 16:24:00,
2013-10-06 12:29:00,51.9,51.4,30.03,ENE,66,0.0,0.0,98,0.00,,,0.11,WeatherCatV1.11B39,2013-10-06 16:29:00,
2013-10-06 12:34:00,52.2,51.7,30.03,ENE,66,0.0,0.0,98,0.00,,,0.11,WeatherCatV1.11B39,2013-10-06 16:34:00,
2013-10-06 12:39:00,52.2,51.7,30.03,ENE,66,0.0,0.0,98,0.00,,,0.11,WeatherCatV1.11B39,2013-10-06 16:39:00,
2013-10-06 12:44:00,52.0,51.2,30.03,ENE,66,0.0,0.0,97,0.00,,,0.11,WeatherCatV1.11B39,2013-10-06 16:44:00,
2013-10-06 12:49:00,52.0,51.7,30.03,ENE,66,0.0,0.0,99,0.00,,,0.11,WeatherCatV1.11B39,2013-10-06 16:49:00,
2013-10-06 12:54:00,52.0,51.5,30.02,ENE,66,0.0,0.0,98,0.00,,,0.11,WeatherCatV1.11B39,2013-10-06 16:54:00,
2013-10-06 12:59:00,51.9,51.4,30.02,ENE,66,0.0,0.0,98,0.00,,,0.11,WeatherCatV1.11B39,2013-10-06 16:59:00,
2013-10-06 13:04:00,52.0,51.5,30.02,ENE,66,0.0,0.0,98,0.00,,,0.11,WeatherCatV1.11B39,2013-10-06 17:04:00,
2013-10-06 13:09:00,51.9,51.4,30.01,ENE,66,0.0,0.0,98,0.00,,,0.11,WeatherCatV1.11B39,2013-10-06 17:09:00,
2013-10-06 13:14:00,51.9,51.4,30.01,ENE,65,0.0,0.0,98,0.00,,,0.11,WeatherCatV1.11B39,2013-10-06 17:14:00,
2013-10-06 13:19:00,51.9,51.4,30.01,ENE,65,0.0,0.0,98,0.00,,,0.11,WeatherCatV1.11B39,2013-10-06 17:19:00,
2013-10-06 13:24:00,52.0,51.5,30.01,ENE,65,0.0,0.0,98,0.00,,,0.11,WeatherCatV1.11B39,2013-10-06 17:24:00,
2013-10-06 13:29:00,52.2,51.7,30.01,ENE,65,0.0,0.0,98,0.00,,,0.11,WeatherCatV1.11B39,2013-10-06 17:29:00,
2013-10-06 13:34:00,52.0,51.5,30.01,ENE,65,0.0,0.0,98,0.00,,,0.11,WeatherCatV1.11B39,2013-10-06 17:34:00,
2013-10-06 13:39:00,52.0,51.5,30.01,ENE,64,0.0,0.0,98,0.00,,,0.11,WeatherCatV1.11B39,2013-10-06 17:39:00,
2013-10-06 13:44:00,52.1,51.6,30.01,ENE,65,0.0,0.0,98,0.00,,,0.11,WeatherCatV1.11B39,2013-10-06 17:44:00,
2013-10-06 13:49:00,52.3,52.0,30.01,ENE,65,0.0,0.0,99,0.00,,,0.11,WeatherCatV1.11B39,2013-10-06 17:49:00,
2013-10-06 13:54:00,52.3,52.0,30.01,ENE,64,0.0,0.0,99,0.00,,,0.11,WeatherCatV1.11B39,2013-10-06 17:54:00,
2013-10-06 13:59:00,52.5,52.0,30.01,ENE,64,0.0,0.0,98,0.00,,,0.11,WeatherCatV1.11B39,2013-10-06 17:59:00,
2013-10-06 14:04:00,52.5,52.2,30.01,ENE,65,0.0,0.0,99,0.00,,,0.11,WeatherCatV1.11B39,2013-10-06 18:04:00,
2013-10-06 14:09:00,52.6,52.0,30.01,ENE,65,0.0,2.0,98,0.00,,,0.11,WeatherCatV1.11B39,2013-10-06 18:09:00,
2013-10-06 14:14:00,52.5,52.2,30.01,ENE,65,0.0,0.0,99,0.00,,,0.11,WeatherCatV1.11B39,2013-10-06 18:14:00,
2013-10-06 14:19:00,52.6,52.3,30.01,ENE,65,0.0,0.0,99,0.00,,,0.11,WeatherCatV1.11B39,2013-10-06 18:19:00,
2013-10-06 14:24:00,52.6,52.0,30.00,ENE,65,0.0,0.0,98,0.00,,,0.11,WeatherCatV1.11B39,2013-10-06 18:24:00,
2013-10-06 14:29:00,52.6,52.3,30.00,ENE,65,0.0,0.0,99,0.00,,,0.12,WeatherCatV1.11B39,2013-10-06 18:29:00,
2013-10-06 14:34:00,52.6,52.3,30.00,ENE,65,0.0,0.0,99,0.00,,,0.12,WeatherCatV1.11B39,2013-10-06 18:34:00,
2013-10-06 14:39:00,52.6,52.3,30.00,ENE,64,0.0,0.0,99,0.00,,,0.12,WeatherCatV1.11B39,2013-10-06 18:39:00,
2013-10-06 14:44:00,52.7,52.4,30.00,ENE,65,0.0,0.0,99,0.00,,,0.12,WeatherCatV1.11B39,2013-10-06 18:44:00,
2013-10-06 14:49:00,52.8,52.5,30.00,ENE,65,0.0,0.0,99,0.00,,,0.12,WeatherCatV1.11B39,2013-10-06 18:49:00,
2013-10-06 14:54:00,52.8,52.5,30.00,ENE,64,0.0,0.0,99,0.00,,,0.12,WeatherCatV1.11B39,2013-10-06 18:54:00,
2013-10-06 14:59:00,52.9,52.6,30.00,ENE,64,0.0,0.0,99,0.00,,,0.12,WeatherCatV1.11B39,2013-10-06 18:59:00,
2013-10-06 15:04:00,52.8,52.5,30.00,ENE,65,0.0,0.0,99,0.00,,,0.12,WeatherCatV1.11B39,2013-10-06 19:04:00,
2013-10-06 15:09:00,52.9,52.3,30.00,ENE,64,0.0,0.0,98,0.00,,,0.12,WeatherCatV1.11B39,2013-10-06 19:09:00,
2013-10-06 15:14:00,53.2,52.6,30.00,ENE,64,0.0,0.0,98,0.00,,,0.12,WeatherCatV1.11B39,2013-10-06 19:14:00,
2013-10-06 15:19:00,53.2,52.9,30.00,ENE,64,0.0,0.0,99,0.00,,,0.12,WeatherCatV1.11B39,2013-10-06 19:19:00,
2013-10-06 15:24:00,53.1,52.5,30.00,ENE,65,0.0,0.0,98,0.00,,,0.12,WeatherCatV1.11B39,2013-10-06 19:24:00,
2013-10-06 15:29:00,53.2,52.9,30.00,ENE,65,0.0,0.0,99,0.00,,,0.12,WeatherCatV1.11B39,2013-10-06 19:29:00,
2013-10-06 15:34:00,53.2,52.6,30.00,ENE,65,0.0,0.0,98,0.00,,,0.12,WeatherCatV1.11B39,2013-10-06 19:34:00,
2013-10-06 15:39:00,53.2,52.9,30.00,ENE,65,0.0,0.0,99,0.00,,,0.12,WeatherCatV1.11B39,2013-10-06 19:39:00,
2013-10-06 15:44:00,53.2,52.9,30.00,ENE,65,0.0,0.0,99,0.00,,,0.12,WeatherCatV1.11B39,2013-10-06 19:44:00,
2013-10-06 15:49:00,53.0,52.7,29.99,ENE,65,0.0,0.0,99,0.00,,,0.12,WeatherCatV1.11B39,2013-10-06 19:49:00,
2013-10-06 15:54:00,52.9,52.6,29.99,ENE,65,0.0,0.0,99,0.00,,,0.12,WeatherCatV1.11B39,2013-10-06 19:54:00,
2013-10-06 15:59:00,52.9,52.6,29.99,ENE,65,0.0,0.0,99,0.00,,,0.12,WeatherCatV1.11B39,2013-10-06 19:59:00,
2013-10-06 16:04:00,53.0,52.7,29.99,ENE,65,0.0,0.0,99,0.00,,,0.12,WeatherCatV1.11B39,2013-10-06 20:04:00,
2013-10-06 16:09:00,53.1,52.8,29.99,ENE,65,0.0,0.0,99,0.00,,,0.12,WeatherCatV1.11B39,2013-10-06 20:09:00,
2013-10-06 16:14:00,53.1,52.8,29.99,ENE,65,0.0,0.0,99,0.00,,,0.12,WeatherCatV1.11B39,2013-10-06 20:14:00,
2013-10-06 16:19:00,53.1,52.8,29.99,ENE,65,0.0,0.0,99,0.00,,,0.12,WeatherCatV1.11B39,2013-10-06 20:19:00,
2013-10-06 16:24:00,52.9,52.6,29.99,ENE,65,0.0,0.0,99,0.00,,,0.12,WeatherCatV1.11B39,2013-10-06 20:24:00,
2013-10-06 16:29:00,52.8,52.2,29.99,ENE,65,0.0,0.0,98,0.00,,,0.12,WeatherCatV1.11B39,2013-10-06 20:29:00,
2013-10-06 16:34:00,52.8,52.5,29.99,ENE,65,0.0,0.0,99,0.00,,,0.12,WeatherCatV1.11B39,2013-10-06 20:34:00,
2013-10-06 16:39:00,52.6,52.3,29.99,ENE,65,0.0,0.0,99,0.00,,,0.12,WeatherCatV1.11B39,2013-10-06 20:39:00,
2013-10-06 16:44:00,52.5,52.2,29.99,ENE,65,0.0,0.0,99,0.00,,,0.12,WeatherCatV1.11B39,2013-10-06 20:44:00,
2013-10-06 16:49:00,52.3,51.8,29.99,ENE,65,0.0,0.0,98,0.00,,,0.12,WeatherCatV1.11B39,2013-10-06 20:49:00,
2013-10-06 16:54:00,52.3,52.0,29.99,ENE,65,0.0,0.0,99,0.00,,,0.12,WeatherCatV1.11B39,2013-10-06 20:54:00,
2013-10-06 16:59:00,52.3,51.8,29.98,ENE,65,0.0,0.0,98,0.00,,,0.12,WeatherCatV1.11B39,2013-10-06 20:59:00,
2013-10-06 17:04:00,52.3,52.0,29.98,ENE,65,0.0,0.0,99,0.00,,,0.12,WeatherCatV1.11B39,2013-10-06 21:04:00,
2013-10-06 17:09:00,52.2,51.7,29.99,ENE,65,0.0,0.0,98,0.00,,,0.12,WeatherCatV1.11B39,2013-10-06 21:09:00,
2013-10-06 17:14:00,52.2,51.9,29.99,ENE,65,0.0,0.0,99,0.00,,,0.12,WeatherCatV1.11B39,2013-10-06 21:14:00,
2013-10-06 17:19:00,52.2,51.9,29.99,ENE,65,0.0,0.0,99,0.00,,,0.12,WeatherCatV1.11B39,2013-10-06 21:19:00,
2013-10-06 17:24:00,52.3,52.0,29.99,ENE,65,0.0,0.0,99,0.00,,,0.12,WeatherCatV1.11B39,2013-10-06 21:24:00,
2013-10-06 17:29:00,52.3,52.0,29.99,ENE,65,0.0,0.0,99,0.00,,,0.12,WeatherCatV1.11B39,2013-10-06 21:29:00,
2013-10-06 17:34:00,52.3,52.0,29.99,ENE,65,0.0,0.0,99,0.00,,,0.12,WeatherCatV1.11B39,2013-10-06 21:34:00,
2013-10-06 17:39:00,52.3,52.0,29.99,ENE,65,0.0,0.0,99,0.00,,,0.12,WeatherCatV1.11B39,2013-10-06 21:39:00,
2013-10-06 17:44:00,52.2,51.9,29.99,ENE,65,0.0,0.0,99,0.00,,,0.12,WeatherCatV1.11B39,2013-10-06 21:44:00,
2013-10-06 17:49:00,52.0,51.7,29.99,ENE,64,0.0,0.0,99,0.00,,,0.12,WeatherCatV1.11B39,2013-10-06 21:49:00,
2013-10-06 17:54:00,52.0,51.7,29.99,ENE,65,0.0,0.0,99,0.00,,,0.12,WeatherCatV1.11B39,2013-10-06 21:54:00,
2013-10-06 17:59:00,52.0,51.7,30.00,ENE,65,0.0,0.0,99,0.00,,,0.12,WeatherCatV1.11B39,2013-10-06 21:59:00,
2013-10-06 18:04:00,51.9,51.6,30.00,ENE,65,0.0,0.0,99,0.00,,,0.12,WeatherCatV1.11B39,2013-10-06 22:04:00,
2013-10-06 18:09:00,51.9,51.6,29.99,ENE,65,0.0,0.0,99,0.00,,,0.12,WeatherCatV1.11B39,2013-10-06 22:09:00,
2013-10-06 18:14:00,51.9,51.6,29.99,ENE,65,0.0,0.0,99,0.00,,,0.12,WeatherCatV1.11B39,2013-10-06 22:14:00,
2013-10-06 18:19:00,51.8,51.5,29.99,ENE,65,0.0,0.0,99,0.00,,,0.12,WeatherCatV1.11B39,2013-10-06 22:19:00,
2013-10-06 18:24:00,51.7,51.4,29.99,ENE,66,1.0,3.0,99,0.00,,,0.12,WeatherCatV1.11B39,2013-10-06 22:24:00,
2013-10-06 18:29:00,51.6,51.3,29.99,ENE,66,0.0,0.0,99,0.00,,,0.12,WeatherCatV1.11B39,2013-10-06 22:29:00,
2013-10-06 18:34:00,51.6,51.3,29.99,ENE,66,0.0,0.0,99,0.00,,,0.12,WeatherCatV1.11B39,2013-10-06 22:34:00,
2013-10-06 18:39:00,51.7,51.4,29.99,ENE,66,0.0,0.0,99,0.00,,,0.12,WeatherCatV1.11B39,2013-10-06 22:39:00,
2013-10-06 18:44:00,51.7,51.4,29.99,ENE,66,0.0,0.0,99,0.00,,,0.12,WeatherCatV1.11B39,2013-10-06 22:44:00,
2013-10-06 18:49:00,51.7,51.4,30.00,ENE,66,0.0,0.0,99,0.00,,,0.12,WeatherCatV1.11B39,2013-10-06 22:49:00,
2013-10-06 18:54:00,51.7,51.4,29.99,ENE,66,0.0,0.0,99,0.00,,,0.12,WeatherCatV1.11B39,2013-10-06 22:54:00,
2013-10-06 18:59:00,51.7,51.4,30.00,ENE,66,0.0,0.0,99,0.00,,,0.12,WeatherCatV1.11B39,2013-10-06 22:59:00,
2013-10-06 19:04:00,51.7,51.4,29.99,ENE,66,0.0,0.0,99,0.00,,,0.12,WeatherCatV1.11B39,2013-10-06 23:04:00,
2013-10-06 19:09:00,51.7,51.4,29.99,ENE,66,0.0,0.0,99,0.00,,,0.12,WeatherCatV1.11B39,2013-10-06 23:09:00,
2013-10-06 19:14:00,51.7,51.4,29.99,ENE,66,0.0,0.0,99,0.00,,,0.12,WeatherCatV1.11B39,2013-10-06 23:14:00,
2013-10-06 19:19:00,51.7,51.4,29.99,ENE,66,0.0,0.0,99,0.00,,,0.12,WeatherCatV1.11B39,2013-10-06 23:19:00,
2013-10-06 19:24:00,51.7,51.4,29.99,ENE,66,0.0,0.0,99,0.00,,,0.12,WeatherCatV1.11B39,2013-10-06 23:24:00,
2013-10-06 19:29:00,51.9,51.6,29.99,ENE,66,0.0,0.0,99,0.00,,,0.12,WeatherCatV1.11B39,2013-10-06 23:29:00,
2013-10-06 19:34:00,51.9,51.6,29.99,ENE,66,0.0,0.0,99,0.00,,,0.12,WeatherCatV1.11B39,2013-10-06 23:34:00,
2013-10-06 19:39:00,51.9,51.6,29.99,ENE,66,0.0,0.0,99,0.00,,,0.12,WeatherCatV1.11B39,2013-10-06 23:39:00,
2013-10-06 19:44:00,51.9,51.6,29.99,ENE,66,0.0,0.0,99,0.00,,,0.12,WeatherCatV1.11B39,2013-10-06 23:44:00,
2013-10-06 19:49:00,52.0,51.7,29.99,ENE,66,0.0,0.0,99,0.00,,,0.12,WeatherCatV1.11B39,2013-10-06 23:49:00,
2013-10-06 19:54:00,52.2,51.9,29.99,ENE,66,0.0,0.0,99,0.00,,,0.12,WeatherCatV1.11B39,2013-10-06 23:54:00,
2013-10-06 19:59:00,52.2,51.7,29.99,ENE,66,0.0,0.0,98,0.00,,,0.12,WeatherCatV1.11B39,2013-10-06 23:59:00,
2013-10-06 20:04:00,52.3,52.0,29.99,ENE,66,0.0,0.0,99,0.00,,,0.12,WeatherCatV1.11B39,2013-10-07 00:04:00,
2013-10-06 20:09:00,52.3,52.0,29.99,ENE,66,0.0,0.0,99,0.00,,,0.12,WeatherCatV1.11B39,2013-10-07 00:09:00,
2013-10-06 20:14:00,52.4,52.1,29.99,ENE,66,0.0,0.0,99,0.00,,,0.12,WeatherCatV1.11B39,2013-10-07 00:14:00,
2013-10-06 20:19:00,52.5,52.2,29.99,ENE,66,0.0,0.0,99,0.00,,,0.12,WeatherCatV1.11B39,2013-10-07 00:19:00,
2013-10-06 20:24:00,52.5,52.0,29.99,ENE,66,0.0,0.0,98,0.00,,,0.12,WeatherCatV1.11B39,2013-10-07 00:24:00,
2013-10-06 20:29:00,52.6,52.0,29.98,ENE,66,0.0,0.0,98,0.00,,,0.12,WeatherCatV1.11B39,2013-10-07 00:29:00,
2013-10-06 20:34:00,52.6,52.3,29.99,ENE,66,0.0,0.0,99,0.00,,,0.12,WeatherCatV1.11B39,2013-10-07 00:34:00,
2013-10-06 20:39:00,52.8,52.5,29.99,ENE,66,0.0,0.0,99,0.00,,,0.12,WeatherCatV1.11B39,2013-10-07 00:39:00,
2013-10-06 20:44:00,52.8,52.2,29.98,ENE,66,0.0,0.0,98,0.00,,,0.12,WeatherCatV1.11B39,2013-10-07 00:44:00,
2013-10-06 20:49:00,52.9,52.6,29.98,ENE,66,0.0,0.0,99,0.00,,,0.12,WeatherCatV1.11B39,2013-10-07 00:49:00,
2013-10-06 20:54:00,53.2,52.9,29.99,ENE,66,0.0,0.0,99,0.00,,,0.12,WeatherCatV1.11B39,2013-10-07 00:54:00,
2013-10-06 20:59:00,53.3,53.0,29.99,ENE,66,0.0,0.0,99,0.00,,,0.12,WeatherCatV1.11B39,2013-10-07 00:59:00,
2013-10-06 21:04:00,53.6,53.3,29.98,ENE,66,0.0,0.0,99,0.00,,,0.12,WeatherCatV1.11B39,2013-10-07 01:04:00,
2013-10-06 21:09:00,53.6,53.3,29.98,ENE,66,0.0,0.0,99,0.00,,,0.12,WeatherCatV1.11B39,2013-10-07 01:09:00,
2013-10-06 21:14:00,53.8,53.5,29.98,ENE,66,0.0,0.0,99,0.00,,,0.12,WeatherCatV1.11B39,2013-10-07 01:14:00,
2013-10-06 21:19:00,53.9,53.6,29.98,ENE,66,0.0,0.0,99,0.00,,,0.12,WeatherCatV1.11B39,2013-10-07 01:19:00,
2013-10-06 21:24:00,53.9,53.6,29.98,ENE,66,0.0,0.0,99,0.00,,,0.12,WeatherCatV1.11B39,2013-10-07 01:24:00,
2013-10-06 21:29:00,54.1,53.8,29.98,ENE,66,0.0,0.0,99,0.00,,,0.12,WeatherCatV1.11B39,2013-10-07 01:29:00,
2013-10-06 21:34:00,54.1,53.8,29.98,ENE,66,0.0,0.0,99,0.00,,,0.12,WeatherCatV1.11B39,2013-10-07 01:34:00,
2013-10-06 21:39:00,54.1,53.8,29.98,ENE,66,0.0,0.0,99,0.00,,,0.12,WeatherCatV1.11B39,2013-10-07 01:39:00,
2013-10-06 21:44:00,54.1,53.8,29.98,ENE,66,0.0,0.0,99,0.00,,,0.12,WeatherCatV1.11B39,2013-10-07 01:44:00,
2013-10-06 21:49:00,54.2,53.9,29.97,ENE,66,0.0,0.0,99,0.00,,,0.12,WeatherCatV1.11B39,2013-10-07 01:49:00,
2013-10-06 21:54:00,54.2,53.6,29.98,ENE,66,0.0,0.0,98,0.00,,,0.12,WeatherCatV1.11B39,2013-10-07 01:54:00,
2013-10-06 21:59:00,54.2,53.9,29.98,ENE,66,0.0,0.0,99,0.00,,,0.12,WeatherCatV1.11B39,2013-10-07 01:59:00,
2013-10-06 22:04:00,54.2,53.9,29.98,ENE,66,0.0,0.0,99,0.00,,,0.12,WeatherCatV1.11B39,2013-10-07 02:04:00,
2013-10-06 22:09:00,54.2,53.9,29.97,ENE,66,0.0,0.0,99,0.00,,,0.12,WeatherCatV1.11B39,2013-10-07 02:09:00,
2013-10-06 22:14:00,54.2,53.9,29.98,ENE,66,0.0,0.0,99,0.00,,,0.12,WeatherCatV1.11B39,2013-10-07 02:14:00,
2013-10-06 22:19:00,54.2,53.9,29.97,ENE,66,0.0,0.0,99,0.00,,,0.12,WeatherCatV1.11B39,2013-10-07 02:19:00,
2013-10-06 22:24:00,54.2,53.9,29.97,ENE,66,0.0,0.0,99,0.00,,,0.12,WeatherCatV1.11B39,2013-10-07 02:24:00,
2013-10-06 22:29:00,54.2,53.9,29.97,ENE,66,0.0,0.0,99,0.00,,,0.12,WeatherCatV1.11B39,2013-10-07 02:29:00,
2013-10-06 22:34:00,54.2,53.9,29.97,ENE,66,0.0,0.0,99,0.00,,,0.12,WeatherCatV1.11B39,2013-10-07 02:34:00,
2013-10-06 22:39:00,54.2,53.9,29.97,ENE,66,0.0,0.0,99,0.00,,,0.12,WeatherCatV1.11B39,2013-10-07 02:39:00,
2013-10-06 22:44:00,54.2,53.9,29.96,ENE,66,0.0,0.0,99,0.00,,,0.12,WeatherCatV1.11B39,2013-10-07 02:44:00,
2013-10-06 22:49:00,54.2,53.9,29.97,ENE,66,0.0,0.0,99,0.00,,,0.12,WeatherCatV1.11B39,2013-10-07 02:49:00,
2013-10-06 22:54:00,54.1,53.8,29.96,ENE,66,0.0,0.0,99,0.00,,,0.12,WeatherCatV1.11B39,2013-10-07 02:54:00,
2013-10-06 22:59:00,54.2,53.6,29.96,ENE,66,0.0,0.0,98,0.00,,,0.12,WeatherCatV1.11B39,2013-10-07 02:59:00,
2013-10-06 23:04:00,54.2,53.9,29.96,ENE,66,0.0,0.0,99,0.00,,,0.12,WeatherCatV1.11B39,2013-10-07 03:04:00,
2013-10-06 23:09:00,54.2,54.2,29.95,ENE,66,0.0,0.0,100,0.00,,,0.12,WeatherCatV1.11B39,2013-10-07 03:09:00,
2013-10-06 23:14:00,54.2,53.9,29.95,ENE,66,0.0,0.0,99,0.00,,,0.12,WeatherCatV1.11B39,2013-10-07 03:14:00,
2013-10-06 23:19:00,54.1,53.8,29.95,ENE,66,0.0,0.0,99,0.00,,,0.12,WeatherCatV1.11B39,2013-10-07 03:19:00,
2013-10-06 23:24:00,54.1,54.1,29.96,ENE,66,0.0,0.0,100,0.00,,,0.12,WeatherCatV1.11B39,2013-10-07 03:24:00,
2013-10-06 23:29:00,54.2,53.9,29.95,ENE,66,0.0,0.0,99,0.00,,,0.12,WeatherCatV1.11B39,2013-10-07 03:29:00,
2013-10-06 23:34:00,54.2,53.9,29.95,ENE,66,0.0,0.0,99,0.00,,,0.12,WeatherCatV1.11B39,2013-10-07 03:34:00,
2013-10-06 23:39:00,54.2,53.9,29.95,ENE,66,0.0,0.0,99,0.00,,,0.12,WeatherCatV1.11B39,2013-10-07 03:39:00,
2013-10-06 23:44:00,54.2,53.9,29.95,ENE,66,0.0,0.0,99,0.00,,,0.12,WeatherCatV1.11B39,2013-10-07 03:44:00,
2013-10-06 23:49:00,54.2,53.9,29.95,ENE,66,0.0,0.0,99,0.00,,,0.13,WeatherCatV1.11B39,2013-10-07 03:49:00,
2013-10-06 23:54:00,54.2,53.9,29.95,ENE,66,0.0,0.0,99,0.00,,,0.13,WeatherCatV1.11B39,2013-10-07 03:54:00,
2013-10-06 23:59:00,54.2,53.9,29.95,ENE,66,0.0,0.0,99,0.00,,,0.13,WeatherCatV1.11B39,2013-10-07 03:59:00,